Regional Weather Roundup
Issued by NWS

Home | Current Version | Previous Version | Graphics & Text | Print | Product List | Glossary On
Versions: 1 2 3 4 5 6 7 8 9 10 11 12 13 14 15 16 17 18 19 20 21 22 23 24 25 26 27 28 29 30 31 32 33 34 35 36 37 38 39 40 41 42 43 44 45 46 47 48 49 50
000
ASUS45 KCYS 231510
RWRWY

WYOMING REGIONAL WEATHER ROUNDUP
NATIONAL WEATHER SERVICE CHEYENNE WY
900 AM MDT TUE SEP 23 2014

NOTE:  "FAIR" INDICATES FEW OR NO CLOUDS BELOW 12,000 FEET
WITH NO SIGNIFICANT WEATHER AND/OR OBSTRUCTIONS TO VISIBILITY.

WYZ001-231600-
YELLOWSTONE NATIONAL PARK

CITY           SKY/WX    TMP DP  RH WIND       PRES   REMARKS
LK YELLOWSTONE   N/A     49  46  90 CALM      30.34R
W YELLOWSTONE  NOT AVBL

$$
WYZ002>013-054>058-071-098>099-231600-
NORTHERN WYOMING

CITY           SKY/WX    TMP DP  RH WIND       PRES   REMARKS
JACKSON        CLOUDY    50  50 100 CALM      30.29R
CODY           SUNNY     66  45  45 W12G18    30.09S
GREYBULL       SUNNY     57  47  69 CALM      30.06R
WORLAND        SUNNY     57  48  72 SW7       30.07S
SHERIDAN       SUNNY     66  47  50 CALM      30.00R
BUFFALO        PTSUNNY   67  45  45 CALM      30.06R
GILLETTE       MOSUNNY   65  49  56 CALM      30.01R
HULETT         CLOUDY    59  55  88 MISG      30.01
NEWCASTLE      DRIZZLE   57  55  94 NW6       30.03

$$
WYZ014>020-022>026-101>103-231600-
CENTRAL WYOMING

CITY           SKY/WX    TMP DP  RH WIND       PRES   REMARKS
BIG PINEY        N/A     46  43  89 CALM      30.30R
PINEDALE       SUNNY     48  45  87 CALM      30.30R
DUBOIS         FAIR      55  41  58 W20       30.25R
LANDER         SUNNY     60  40  47 W6        30.14R
RIVERTON       SUNNY     60  40  47 W9        30.15R
CASPER         SUNNY     63  41  44 SW16      30.11R
DOUGLAS        SUNNY     64  43  46 NW7       30.08S

$$
WYZ021-027>030-104>119-231600-
SOUTHERN WYOMING

CITY           SKY/WX    TMP DP  RH WIND       PRES   REMARKS
EVANSTON       SUNNY     55  46  71 SW7       30.30R
KEMMERER       SUNNY     45  43  93 N3        30.31R
FORT BRIDGER   PTSUNNY   56  47  72 CALM      30.32S
ROCK SPRINGS   SUNNY     53  43  68 SW7       30.28R
DIXON          PTSUNNY   55  52  90 CALM      30.30S
RAWLINS        MOSUNNY   56  45  66 SW15      30.24R
SARATOGA       PTSUNNY   52  46  82 E3        30.28R
LARAMIE        SUNNY     58  43  57 W16       30.22S
CHEYENNE       MOSUNNY   64  45  49 W10       30.17S
TORRINGTON     SUNNY     61  49  64 NW5       30.03R
PINE BLUFFS    FAIR      64  48  55 W12       30.12S

$$



USA.gov is the U.S. government's official web portal to all federal, state and local government web resources and services.